TimeCST,TemperatureF,Dew PointF,Humidity,Sea Level PressureIn,VisibilityMPH,Wind Direction,Wind SpeedMPH,Gust SpeedMPH,PrecipitationIn,Events,Conditions,WindDirDegrees,DateUTC
12:35 AM,23.9,22.6,95,29.95,4.0,NNW,12.7,18.4,N/A,,Overcast,330,2013-02-27 06:35:00
12:55 AM,23.9,22.6,95,29.95,4.0,NNW,15.0,-,N/A,,Overcast,330,2013-02-27 06:55:00
1:15 AM,23.7,22.5,95,29.94,3.0,NW,15.0,-,N/A,,Overcast,320,2013-02-27 07:15:00
1:35 AM,23.5,22.5,96,29.94,3.0,NNW,15.0,-,N/A,,Overcast,330,2013-02-27 07:35:00
1:55 AM,23.7,22.6,96,29.94,3.0,NNW,13.8,-,N/A,,Overcast,330,2013-02-27 07:55:00
2:15 AM,23.5,22.6,96,29.94,2.5,NNW,19.6,-,N/A,,Overcast,330,2013-02-27 08:15:00
2:35 AM,23.4,22.1,95,29.94,3.0,NNW,16.1,19.6,N/A,,Overcast,330,2013-02-27 08:35:00
2:55 AM,23.2,21.9,95,29.93,4.0,NNW,19.6,-,N/A,,Overcast,330,2013-02-27 08:55:00
3:15 AM,23.0,21.7,95,29.93,4.0,NNW,15.0,21.9,N/A,,Overcast,330,2013-02-27 09:15:00
3:35 AM,22.8,21.6,95,29.94,4.0,NNW,16.1,23.0,N/A,,Overcast,330,2013-02-27 09:35:00
3:55 AM,22.8,21.2,93,29.93,4.0,NNW,16.1,24.2,N/A,,Overcast,340,2013-02-27 09:55:00
4:15 AM,22.6,21.2,94,29.93,4.0,NNW,17.3,23.0,N/A,,Overcast,330,2013-02-27 10:15:00
4:35 AM,22.1,20.7,94,29.93,4.0,NNW,18.4,24.2,N/A,,Overcast,330,2013-02-27 10:35:00
4:55 AM,21.7,20.1,93,29.94,4.0,NNW,19.6,23.0,N/A,,Overcast,330,2013-02-27 10:55:00
5:15 AM,20.3,18.7,93,29.95,5.0,NNW,17.3,27.6,N/A,,Overcast,330,2013-02-27 11:15:00
5:35 AM,19.9,18.1,93,29.95,5.0,NNW,17.3,23.0,N/A,,Mostly Cloudy,330,2013-02-27 11:35:00
5:55 AM,19.4,17.6,93,29.96,7.0,NNW,16.1,-,N/A,,Scattered Clouds,330,2013-02-27 11:55:00
6:15 AM,19.2,17.2,92,29.96,7.0,NNW,13.8,19.6,N/A,,Clear,330,2013-02-27 12:15:00
6:35 AM,18.5,16.3,91,29.96,7.0,NNW,16.1,23.0,N/A,,Clear,330,2013-02-27 12:35:00
6:55 AM,18.5,15.8,89,29.96,7.0,NW,17.3,23.0,N/A,,Clear,320,2013-02-27 12:55:00
7:35 AM,19.0,15.8,87,29.97,7.0,NW,17.3,23.0,N/A,,Clear,320,2013-02-27 13:35:00
7:55 AM,19.4,15.8,86,29.98,7.0,NW,19.6,-,N/A,,Clear,320,2013-02-27 13:55:00
8:15 AM,19.9,15.8,84,30.00,10.0,NW,18.4,26.5,N/A,,Clear,320,2013-02-27 14:15:00
8:35 AM,20.1,15.8,83,30.00,10.0,NW,18.4,28.8,N/A,,Clear,320,2013-02-27 14:35:00
9:15 AM,22.1,16.7,80,30.00,10.0,NW,23.0,29.9,N/A,,Clear,320,2013-02-27 15:15:00
9:35 AM,23.0,17.2,79,30.01,10.0,NW,21.9,27.6,N/A,,Clear,320,2013-02-27 15:35:00
9:55 AM,23.7,17.6,77,30.01,10.0,NW,20.7,31.1,N/A,,Clear,320,2013-02-27 15:55:00
10:15 AM,24.8,18.5,77,30.02,10.0,NNW,19.6,25.3,N/A,,Clear,330,2013-02-27 16:15:00
10:35 AM,25.3,18.5,75,30.02,10.0,NNW,19.6,26.5,N/A,,Clear,330,2013-02-27 16:35:00
10:55 AM,26.2,19.4,75,30.02,10.0,NNW,17.3,26.5,N/A,,Clear,330,2013-02-27 16:55:00
11:15 AM,27.9,20.7,74,30.03,10.0,NNW,18.4,24.2,N/A,,Clear,330,2013-02-27 17:15:00
11:35 AM,29.1,20.7,71,30.03,10.0,NW,20.7,26.5,N/A,,Clear,320,2013-02-27 17:35:00
11:55 AM,29.8,21.2,70,30.04,10.0,NNW,19.6,27.6,N/A,,Clear,330,2013-02-27 17:55:00
12:15 PM,30.2,21.4,70,30.03,10.0,NNW,18.4,26.5,N/A,,Clear,330,2013-02-27 18:15:00
12:35 PM,30.9,22.5,71,30.03,10.0,NNW,19.6,27.6,N/A,,Clear,330,2013-02-27 18:35:00
12:55 PM,31.3,22.3,69,30.03,10.0,NNW,20.7,25.3,N/A,,Clear,330,2013-02-27 18:55:00
1:15 PM,31.8,22.5,68,30.04,10.0,NNW,21.9,25.3,N/A,,Clear,330,2013-02-27 19:15:00
1:35 PM,32.0,22.5,68,30.04,10.0,NNW,23.0,29.9,N/A,,Clear,330,2013-02-27 19:35:00
1:55 PM,32.4,23.4,69,30.05,10.0,NNW,17.3,25.3,N/A,,Clear,330,2013-02-27 19:55:00
2:15 PM,32.4,23.4,69,30.05,10.0,NNW,26.5,31.1,N/A,,Clear,330,2013-02-27 20:15:00
2:35 PM,32.9,23.9,69,30.04,10.0,NNW,19.6,26.5,N/A,,Clear,330,2013-02-27 20:35:00
2:55 PM,32.9,24.6,72,30.05,10.0,NW,17.3,26.5,N/A,,Clear,320,2013-02-27 20:55:00
3:15 PM,32.5,25.0,74,30.05,10.0,NW,19.6,24.2,N/A,,Clear,320,2013-02-27 21:15:00
3:35 PM,32.9,24.8,72,30.05,10.0,NW,21.9,27.6,N/A,,Clear,320,2013-02-27 21:35:00
3:55 PM,32.9,25.0,73,30.05,10.0,NW,18.4,26.5,N/A,,Clear,320,2013-02-27 21:55:00
4:15 PM,32.9,25.9,75,30.06,10.0,NW,16.1,23.0,N/A,,Clear,320,2013-02-27 22:15:00
4:35 PM,33.1,25.7,74,30.06,10.0,NW,17.3,23.0,N/A,,Clear,320,2013-02-27 22:35:00
4:55 PM,32.9,25.9,75,30.06,10.0,NNW,15.0,21.9,N/A,,Clear,330,2013-02-27 22:55:00
5:15 PM,32.9,27.1,79,30.06,10.0,NW,17.3,23.0,N/A,,Clear,320,2013-02-27 23:15:00
5:35 PM,32.2,27.0,81,30.06,10.0,NNW,17.3,24.2,N/A,,Clear,330,2013-02-27 23:35:00
5:55 PM,32.0,27.3,83,30.06,10.0,NNW,18.4,23.0,N/A,,Scattered Clouds,330,2013-02-27 23:55:00
6:15 PM,32.0,27.1,82,30.07,10.0,NW,19.6,27.6,N/A,,Mostly Cloudy,320,2013-02-28 00:15:00
6:35 PM,32.0,27.0,82,30.07,10.0,NNW,26.5,32.2,N/A,,Overcast,330,2013-02-28 00:35:00
6:55 PM,32.0,27.0,82,30.08,10.0,NW,25.3,32.2,N/A,,Overcast,320,2013-02-28 00:55:00
7:15 PM,32.0,27.1,82,30.08,10.0,NNW,25.3,32.2,N/A,,Overcast,330,2013-02-28 01:15:00
7:35 PM,32.0,27.1,82,30.08,7.0,NNW,21.9,29.9,N/A,,Overcast,330,2013-02-28 01:35:00
8:15 PM,31.1,26.4,83,30.08,7.0,NW,24.2,31.1,N/A,,Mostly Cloudy,320,2013-02-28 02:15:00
8:35 PM,30.7,25.3,80,30.09,10.0,NNW,25.3,35.7,N/A,,Mostly Cloudy,330,2013-02-28 02:35:00
8:55 PM,30.4,25.5,82,30.10,10.0,NNW,23.0,31.1,N/A,,Overcast,330,2013-02-28 02:55:00
9:15 PM,29.8,25.5,84,30.10,10.0,NNW,23.0,29.9,N/A,,Overcast,340,2013-02-28 03:15:00
9:35 PM,29.5,25.5,85,30.10,10.0,NNW,18.4,26.5,N/A,,Overcast,340,2013-02-28 03:35:00
9:55 PM,28.8,24.8,85,30.10,10.0,NNW,17.3,26.5,N/A,,Overcast,340,2013-02-28 03:55:00
10:35 PM,28.8,24.8,85,30.11,10.0,NNW,18.4,26.5,N/A,,Overcast,330,2013-02-28 04:35:00
10:55 PM,28.6,24.8,86,30.11,10.0,NNW,19.6,26.5,N/A,,Overcast,330,2013-02-28 04:55:00
11:15 PM,28.4,25.3,88,30.12,10.0,NNW,15.0,25.3,N/A,,Overcast,340,2013-02-28 05:15:00
11:35 PM,28.4,25.5,89,30.12,10.0,NNW,21.9,26.5,N/A,,Overcast,340,2013-02-28 05:35:00